[[{"header":{"parameterUnit":"m.s-1","parameterCategory":1,"la1":30.2991,"la2":30.254,"lo1":-89.0895,"lo2":-89.0444,"dy":0.0017,"dx":0.0017,"nx":28,"ny":28,"refTime":"2023-08-29T21:00:00:Z","depth":0,"parameterNumber":2,"parameterNumberName":"U-component_of_WINDS"},"data":[0,0,0,0,0,0,0,0,0,0,0,0,0,0,0,0,0,0,0,0,0,0,0,0,0,0,0,0,0,0,0,0,0,0,0,0,0,0,0,0,0,0,0,0,0,0,0,0,0,0,0,0,0,0,0,0,0,0,-6.0079,-6.0081,0,-6.0233,-6.0234,-6.0236,-6.0167,-6.0163,-6.016,-6.0156,-6.0301,-6.0308,-6.0315,0,0,0,0,0,0,0,0,0,0,0,0,0,-5.9715,-5.9722,-6.0079,-6.0081,-6.0083,-6.0232,-6.0234,-6.0237,-6.0168,-6.0163,-6.0159,-6.0154,-6.0298,-6.0307,-6.0316,0,0,0,0,0,0,0,0,0,0,0,0,0,-5.9871,-5.9724,-6.0079,-6.0067,-6.0068,-6.0232,-6.0235,-6.0237,-6.0169,-6.0163,-6.0158,-6.0152,-6.0295,-6.0306,-6.0317,-6.0498,0,0,-6.0351,-6.0355,0,0,0,0,0,0,0,0,-5.9862,-5.9884,-6.0067,-6.0068,-6.0069,-6.0175,-6.0159,-6.0324,-6.017,-6.013,-6.0156,-6.015,-6.0263,-6.0276,-6.0317,-6.0505,-6.0511,-6.0352,-6.0358,-6.0363,-6.0366,0,0,0,0,0,0,0,-5.9851,-5.9877,-6.0139,-6.007,-6.0071,-6.005,-6.0066,-6.019,-6.0226,-6.0133,-6.0129,-6.0148,-6.0262,-6.0306,-6.032,-6.0513,-6.0351,-6.0361,-6.0368,-6.0372,-6.0855,-6.0861,0,0,0,0,0,0,-5.9842,-5.9869,-6.0134,-6.0144,-5.995,-6.0061,-6.0079,-6.0147,-6.0224,-6.0231,-6.0153,-6.0145,-6.029,-6.0307,-6.0324,-6.0539,-6.0363,-6.0373,-6.038,-6.0849,-6.0857,-6.0863,0,0,0,0,0,0,-5.9835,-5.9867,-6.0128,-6.0005,-6.0037,-6.0074,-6.015,-6.0153,-6.0197,-6.024,-6.0244,-6.0192,-6.0287,-6.0309,-6.0456,-6.0543,-6.0378,-6.0388,-6.0842,-6.0851,-6.086,-6.0971,0,0,0,0,0,0,-5.9825,-5.9865,-5.9936,-6.0008,-6.0044,-6.026,-6.0156,-6.016,-6.0218,-6.0208,-6.0278,-6.0284,-6.0284,-6.044,-6.0467,-6.0555,-6.0397,-6.0834,-6.0846,-6.0857,-6.0959,-6.0982,-6.1003,0,0,0,0,0,-5.9812,-5.9959,-5.994,-5.9972,-6.0135,-6.0266,-6.0286,-6.0287,-6.0225,-6.0295,-6.0323,-6.0281,-6.0531,-6.0455,-6.0485,-6.0578,-6.0828,-6.0843,-6.0856,-6.0949,-6.0978,-6.1002,0,0,0,0,0,0,-5.989,-5.9968,-5.9948,-6.0123,-6.0189,-6.0254,-6.0342,-6.0317,-6.0398,-6.0385,-6.038,-6.0396,-6.0547,-6.0578,-6.0493,-6.0757,-6.0669,-6.069,-6.073,-6.0758,-6.0779,-6.0765,-6.0406,0,0,0,0,0,-5.993,-6.0034,-6.0094,-6.0242,-6.0277,-6.0305,-6.0361,-6.0357,-6.0423,-6.0449,-6.0487,-6.055,-6.0642,-6.0702,-6.079,-6.0966,-6.0977,-6.1044,-6.1066,-6.1084,-6.1099,-6.1192,-6.1221,-6.0909,-6.0909,-6.0909,0,0,-6.0008,-6.0063,-6.0128,-6.0259,-6.031,-6.0413,-6.0328,-6.0441,-6.0516,-6.0465,-6.0606,-6.0637,-6.0706,-6.0868,-6.0941,-6.0898,-6.119,-6.1102,-6.1115,-6.1121,-6.1209,-6.1239,-6.1265,-6.0919,-6.0917,-6.0915,0,0,-6.0203,-6.0258,-6.0387,-6.0441,-6.0521,-6.0539,-6.057,-6.0641,-6.066,-6.0803,-6.0767,-6.0855,-6.1015,-6.1065,-6.1112,-6.1331,-6.1295,-6.136,-6.147,-6.1561,-6.1585,-6.1607,-6.1681,-6.1708,-6.1377,-6.1377,-6.1378,0,-6.0289,-6.0448,-6.0455,-6.0572,-6.0629,-6.0594,-6.0722,-6.0773,-6.0875,-6.0913,-6.0866,-6.1066,-6.1111,-6.1282,-6.1336,-6.1377,-6.1409,-6.1349,-6.1582,-6.1604,-6.1624,-6.1694,-6.1723,-6.1384,-6.1384,-6.1383,-6.1382,0,-6.0548,-6.0659,-6.0753,-6.0858,-6.0926,-6.1048,-6.1069,-6.1137,-6.1129,-6.1151,-6.1296,-6.1349,-6.1446,-6.1488,-6.1478,-6.1658,-6.1629,-6.1583,-6.1493,-6.1661,-6.1726,-6.1754,-6.1395,-6.1392,-6.139,-6.1388,0,0,-6.079,-6.0902,-6.0936,-6.0983,-6.107,-6.1153,-6.1274,-6.1373,-6.1429,-6.1503,-6.1599,-6.1738,-6.1696,-6.1749,-6.1746,-6.1827,-6.1992,-6.177,-6.1771,-6.1805,-6.2189,-6.2219,-6.225,-6.1972,-6.1977,-6.1981,-6.2181,0,-6.0989,-6.1203,-6.1214,-6.1406,-6.1506,-6.1477,-6.1581,-6.1643,-6.1669,-6.1754,-6.1781,-6.1877,-6.1817,-6.1849,-6.1928,-6.1955,-6.2068,-6.1942,-6.2056,-6.206,-6.2034,-6.2285,-6.2317,-6.2503,-6.2208,-6.2212,-6.2215,0,-6.1247,-6.1333,-6.1537,-6.1611,-6.1653,-6.1747,-6.1839,-6.1924,-6.1993,-6.2006,-6.2068,-6.2054,-6.2172,-6.2086,-6.2247,-6.2161,-6.2209,-6.2231,-6.2238,-6.2243,-6.2143,-6.2292,-6.2563,-6.2589,-6.2257,-6.2253,-6.225,0,-6.1398,-6.1565,-6.1708,-6.175,-6.1841,-6.1907,-6.1947,-6.2013,-6.2072,-6.2152,-6.2189,-6.2281,-6.2329,-6.2399,-6.2409,-6.2346,-6.257,-6.2484,-6.2579,-6.2578,-6.2621,-6.2617,-6.2898,-6.2663,-6.2663,-6.2662,-6.2662,0,-6.1615,-6.1739,-6.1777,-6.1864,-6.2002,-6.2014,-6.2148,-6.2183,-6.2243,-6.2333,-6.2314,-6.2398,-6.2409,-6.2496,-6.2505,-6.2635,-6.2658,-6.2668,-6.2667,-6.2666,-6.2664,-6.2692,-6.2677,-6.267,-6.2668,-6.2666,-6.2665,0,-6.1803,-6.1835,-6.1988,-6.2064,-6.2086,-6.2184,-6.2246,-6.2328,-6.2354,-6.2468,-6.2496,-6.2534,-6.2635,-6.2654,-6.2773,-6.2779,-6.2932,-6.2922,-6.2909,-6.2906,-6.2997,-6.2986,-6.3301,-6.3341,-6.3085,-6.3088,-6.309,0,-6.1936,-6.2032,-6.212,-6.2182,-6.2227,-6.2326,-6.2388,-6.2403,-6.2467,-6.2556,-6.2626,-6.2727,-6.2807,-6.297,-6.3005,-6.3095,-6.3083,-6.3188,-6.3096,-6.3091,-6.3078,-6.307,-6.3078,-6.3202,-6.3205,-6.3208,-6.3209,0,-6.2168,-6.218,-6.2272,-6.2371,-6.2446,-6.2523,-6.2596,-6.2646,-6.2671,-6.2744,-6.285,-6.2913,-6.3036,-6.3134,-6.3225,-6.3262,-6.3238,-6.324,-6.3265,-6.3261,-6.3248,-6.3251,-6.2951,-6.323,-6.3228,-6.3227,-6.3225,-6.3225,-6.2329,-6.2412,-6.2488,-6.2591,-6.2649,-6.2718,-6.2799,-6.2837,-6.2926,-6.303,-6.3034,-6.3148,-6.3215,-6.3336,-6.338,-6.3467,-6.3433,-6.3471,-6.348,-6.3487,-6.3494,-6.3241,-6.3484,-6.3483,-6.3483,-6.3482,-6.3482,0,-6.2555,-6.2604,-6.2699,-6.2804,-6.2885,-6.2864,-6.2943,-6.301,-6.3113,-6.318,-6.3262,-6.3382,-6.3478,-6.3524,-6.3617,-6.3678,-6.3669,-6.3702,-6.3694,-6.3702,-6.3521,-6.3487,-6.3707,-6.3707,-6.3707,-6.3707,-6.3707,-6.3707,-6.2681,-6.2821,-6.2842,-6.3008,-6.3055,-6.317,-6.3217,-6.328,-6.3334,-6.3471,-6.3552,-6.3583,-6.3641,-6.3739,-6.3825,-6.3836,-6.3868,-6.3905,-6.391,-6.3738,-6.3715,-6.3693,-6.366,-6.3913,-6.3914,-6.4082,-6.4084,-6.4085]},{"header":{"parameterUnit":"m.s-1","parameterCategory":1,"la1":30.2991,"la2":30.254,"lo1":-89.0895,"lo2":-89.0444,"dy":0.0017,"dx":0.0017,"nx":28,"ny":28,"refTime":"2023-08-29T21:00:00:Z","depth":0,"parameterNumber":3,"parameterNumberName":"V-component_of_WINDS"},"data":[0,0,0,0,0,0,0,0,0,0,0,0,0,0,0,0,0,0,0,0,0,0,0,0,0,0,0,0,0,0,0,0,0,0,0,0,0,0,0,0,0,0,0,0,0,0,0,0,0,0,0,0,0,0,0,0,0,0,1.4199,1.4197,0,1.4052,1.405,1.4049,1.3968,1.3968,1.3968,1.3968,1.3815,1.3811,1.3808,0,0,0,0,0,0,0,0,0,0,0,0,0,1.4409,1.4406,1.4199,1.4197,1.4195,1.4052,1.405,1.4048,1.3969,1.3968,1.3968,1.3968,1.3816,1.3812,1.3807,0,0,0,0,0,0,0,0,0,0,0,0,0,1.4296,1.4405,1.4199,1.4138,1.4131,1.4053,1.405,1.4048,1.3969,1.3968,1.3968,1.3968,1.3818,1.3812,1.3807,1.3776,0,0,1.3789,1.3786,0,0,0,0,0,0,0,0,1.4302,1.4288,1.4149,1.4142,1.4135,1.4028,1.4068,1.3957,1.3969,1.403,1.3968,1.3968,1.3886,1.3875,1.3848,1.3769,1.3763,1.3788,1.3785,1.3782,1.3781,0,0,0,0,0,0,0,1.431,1.4294,1.4141,1.4147,1.4138,1.4118,1.4101,1.4047,1.3962,1.4025,1.4019,1.4003,1.3882,1.3854,1.3844,1.376,1.3788,1.3783,1.378,1.3777,1.365,1.3651,0,0,0,0,0,0,1.4328,1.4301,1.4145,1.4136,1.4219,1.4114,1.4096,1.4063,1.3962,1.3946,1.4003,1.3999,1.3864,1.385,1.3838,1.3796,1.3782,1.3777,1.3773,1.365,1.365,1.3651,0,0,0,0,0,0,1.4333,1.4315,1.4151,1.4217,1.4195,1.4111,1.4074,1.406,1.4031,1.3945,1.393,1.399,1.3863,1.3846,1.3793,1.3789,1.3774,1.3769,1.365,1.365,1.3651,1.3711,0,0,0,0,0,0,1.4339,1.4317,1.4305,1.4217,1.4191,1.4109,1.4074,1.4057,1.4022,1.4016,1.3929,1.3914,1.3861,1.3802,1.3787,1.3781,1.3764,1.365,1.365,1.365,1.3709,1.3714,1.3717,0,0,0,0,0,1.4347,1.4327,1.4305,1.4286,1.4174,1.4109,1.4094,1.4034,1.4022,1.4008,1.3954,1.3917,1.3793,1.3797,1.3779,1.3772,1.365,1.365,1.365,1.3707,1.3713,1.3717,0,0,0,0,0,0,1.4415,1.4314,1.4288,1.424,1.4184,1.4095,1.4077,1.4042,1.3987,1.3984,1.3912,1.3893,1.3846,1.3804,1.381,1.3738,1.3717,1.3714,1.3767,1.3771,1.3775,1.3785,1.3759,0,0,0,0,0,1.4424,1.438,1.4295,1.426,1.4233,1.4161,1.413,1.4089,1.4028,1.4003,1.3944,1.3886,1.3833,1.38,1.3747,1.3704,1.3683,1.369,1.3694,1.3698,1.3695,1.3669,1.3671,1.3652,1.3652,1.3652,0,0,1.4443,1.4383,1.4359,1.4272,1.4224,1.4179,1.4141,1.4095,1.4061,1.3996,1.3941,1.3897,1.3827,1.3778,1.3754,1.3741,1.3697,1.3698,1.3702,1.3697,1.367,1.3672,1.3673,1.3652,1.3652,1.3652,0,0,1.4454,1.4404,1.437,1.4323,1.4251,1.4203,1.4196,1.4113,1.4081,1.4026,1.3977,1.3935,1.3847,1.3799,1.3763,1.3759,1.3723,1.3744,1.3765,1.374,1.3742,1.3743,1.374,1.374,1.3743,1.3743,1.3743,0,1.4485,1.4417,1.4357,1.4314,1.4277,1.4219,1.4183,1.414,1.4055,1.4031,1.4018,1.3907,1.3856,1.3795,1.3795,1.3768,1.3756,1.3753,1.3747,1.3747,1.3747,1.3744,1.3743,1.3746,1.3745,1.3745,1.3745,0,1.4459,1.4413,1.4394,1.4314,1.4276,1.4237,1.4171,1.4139,1.4103,1.4056,1.4001,1.3938,1.3872,1.3855,1.3818,1.3789,1.3784,1.376,1.3738,1.3753,1.3749,1.3747,1.375,1.3749,1.3748,1.3747,0,0,1.4505,1.4395,1.4389,1.4353,1.4271,1.4233,1.4193,1.4129,1.4103,1.4047,1.401,1.3938,1.3916,1.3875,1.3833,1.3812,1.3813,1.3791,1.3788,1.3796,1.3776,1.3794,1.3793,1.3789,1.3789,1.3788,1.3782,0,1.4503,1.4428,1.4374,1.4319,1.4275,1.4221,1.4185,1.4131,1.4087,1.4043,1.3994,1.3944,1.3919,1.3894,1.3871,1.3818,1.3807,1.3818,1.3753,1.3752,1.3771,1.3791,1.3809,1.3805,1.378,1.378,1.3779,0,1.449,1.4438,1.4379,1.4303,1.4283,1.4252,1.419,1.4149,1.4087,1.4056,1.4013,1.397,1.3924,1.3908,1.3844,1.3852,1.3823,1.3793,1.3792,1.3782,1.3765,1.378,1.3803,1.3802,1.3777,1.3777,1.3777,0,1.4529,1.4444,1.4398,1.4368,1.4279,1.4258,1.422,1.4157,1.4123,1.4069,1.4046,1.3987,1.3954,1.391,1.3852,1.3846,1.3794,1.3773,1.3766,1.3768,1.3756,1.3757,1.3773,1.3741,1.3741,1.3741,1.3741,0,1.4532,1.4498,1.4414,1.4386,1.4346,1.4285,1.4247,1.4204,1.4149,1.4111,1.406,1.4025,1.3953,1.3909,1.3864,1.3817,1.3803,1.3777,1.3765,1.378,1.3784,1.3759,1.3757,1.374,1.374,1.374,1.374,0,1.4567,1.451,1.4456,1.4377,1.4356,1.4331,1.4262,1.4232,1.4187,1.4139,1.4124,1.4053,1.3999,1.3938,1.3863,1.3833,1.3789,1.3773,1.3811,1.3803,1.38,1.38,1.3798,1.3794,1.3767,1.3767,1.3768,0,1.4572,1.4544,1.4463,1.4435,1.4398,1.4353,1.4318,1.4257,1.4223,1.4151,1.413,1.4073,1.4023,1.394,1.388,1.3823,1.3804,1.3808,1.3795,1.3812,1.3803,1.3804,1.3801,1.3811,1.3811,1.3812,1.3812,0,1.4585,1.4559,1.4512,1.4455,1.4416,1.4368,1.4318,1.4297,1.4226,1.4191,1.4136,1.4098,1.4023,1.3966,1.3902,1.3861,1.3824,1.3817,1.3812,1.3826,1.3849,1.3836,1.3819,1.3817,1.3816,1.3816,1.3816,1.3815,1.4604,1.4578,1.4517,1.4467,1.4423,1.4378,1.4346,1.4298,1.4252,1.4187,1.4154,1.4099,1.4038,1.3949,1.391,1.3866,1.3853,1.3847,1.3845,1.3843,1.3847,1.3858,1.3854,1.3854,1.3853,1.3853,1.3853,0,1.4615,1.4574,1.4528,1.4461,1.4421,1.4392,1.4336,1.4304,1.4257,1.4204,1.4157,1.4095,1.404,1.3977,1.3919,1.3895,1.3877,1.3882,1.3882,1.3873,1.3862,1.3872,1.3898,1.3898,1.3898,1.3898,1.3898,1.3898,1.4615,1.457,1.4537,1.4469,1.4427,1.4375,1.4345,1.4303,1.426,1.4193,1.4148,1.4108,1.4051,1.3988,1.3937,1.392,1.39,1.3909,1.3887,1.3878,1.3874,1.387,1.3879,1.3906,1.3906,1.3902,1.3902,1.3902]}]]